Location: Bergnershof
(48.9468°N, 10.9431°E)
Time: 11:43:44
(UTC+00:00)

USA 308 - Pass Details

Date: 03 March 2021
Orbit: 568 x 576 km, 54.0° (Epoch: 13 April)

Event Time Altitude Azimuth Distance (km) Brightness Sun altitude
Rises 18:27:13 0° 278° (W) 2,777 8.4 -14.6°
Reaches altitude 10° 18:29:34 10° 286° (WNW) 1,878 6.9 -15.0°
Maximum altitude 18:33:38 41° 357° (N) 831 3.8 -15.7°
Enters shadow 18:35:58 22° 57° (ENE) 1,276 4.2 -16.0°
